RH
17 17 17 16 16 16 15 15 15 14 14 14 14 13 13 13 12 12 11 11 11 10 10 9 8 8 7 8 8 8 8 8 10 11 12 12 12 13 13 14 14 15 14 14 14 13 13 13 14 15 15 16 16 17 17 17 17 17 15 16 13 19 28 19 44 91 81 61 53 40 51 70 68 59 67 66 64 77 70 47 31 28 33 31 32 33 34 33
18 18 18 18 17 16 16 16 16 15 15 14 14 14 13 13 13 12 12 11 11 10 10 10 9 9 8 8 8 8 8 7 8 8 10 11 11 12 12 13 13 13 14 14 13 13 13 13 14 14 14 16 16 15 16 16 17 17 15 16 15 14 17 12 38 88 80 52 52 51 53 65 67 64 68 62 65 85 78 58 37 28 33 31 33 33 35 36
19 19 19 19 19 18 18 17 17 16 15 15 14 14 14 13 13 12 12 11 11 11 10 10 10 10 9 9 8 8 8 8 8 7 8 9 9 11 11 11 12 12 13 13 13 13 13 13 13 14 14 14 15 15 15 16 15 17 17 15 15 14 15 11 31 72 70 64 80 72 62 65 70 75 72 56 65 83 74 62 43 28 33 32 32 34 36 38
21 21 21 20 20 19 19 18 17 17 16 15 14 14 14 13 13 12 12 12 11 11 10 10 10 10 10 10 9 9 8 8 8 7 7 7 8 8 10 10 11 11 11 12 13 12 13 13 13 13 14 14 14 15 14 15 14 15 16 15 16 13 16 11 20 51 49 60 94 90 77 74 77 84 76 59 67 82 70 64 52 30 32 32 31 35 35 39
23 22 22 21 21 20 19 19 18 17 16 16 15 14 14 13 13 12 12 11 11 11 10 10 10 10 10 10 10 9 9 9 8 8 8 7 7 7 7 9 9 10 10 11 11 12 12 12 13 13 13 14 13 14 13 14 14 14 14 14 17 13 16 14 12 29 25 34 77 100 92 74 84 88 73 69 75 90 79 65 61 35 30 33 30 34 33 38
24 23 23 22 22 21 20 20 18 18 17 16 15 14 14 13 13 12 12 11 11 10 10 10 10 10 10 9 9 9 9 9 9 8 9 8 7 7 6 7 8 9 9 10 10 11 12 11 12 12 12 13 12 13 13 14 14 13 14 12 16 14 14 16 13 16 15 15 39 83 94 71 90 84 60 78 84 95 91 69 67 42 29 35 29 32 33 36
25 24 24 23 23 22 21 20 19 19 18 17 16 16 14 14 13 13 12 11 11 10 10 9 9 9 9 9 9 9 9 9 9 9 9 9 8 8 7 6 6 7 8 9 10 9 10 11 11 11 11 12 11 13 12 13 13 12 14 12 13 15 13 15 15 14 14 14 13 51 93 88 100 84 54 81 85 91 97 72 68 50 31 35 31 32 33 35
27 26 25 24 23 22 22 21 20 19 19 18 17 17 16 15 14 13 13 12 11 10 10 10 9 9 9 9 9 9 9 9 9 9 9 9 9 9 7 7 6 6 7 7 8 9 9 10 10 10 10 11 11 12 12 11 13 12 13 13 13 13 14 13 14 16 12 16 12 28 81 100 102 86 59 75 76 77 88 71 67 57 34 32 33 32 33 36
27 27 26 26 25 23 23 21 21 20 20 20 19 18 17 17 16 15 15 13 13 11 11 10 9 9 9 9 9 8 9 9 9 9 10 9 9 9 8 8 7 6 7 7 7 7 9 9 9 10 9 10 10 10 12 11 12 12 12 12 13 11 13 13 12 17 13 15 14 17 63 94 94 91 73 72 70 63 73 72 69 62 40 31 34 33 32 36
28 28 27 27 26 24 24 23 22 22 21 21 20 20 20 19 19 18 17 16 15 14 12 11 10 10 9 9 9 8 9 8 9 9 9 10 9 9 9 9 8 7 7 6 7 6 8 8 9 10 9 9 10 9 10 11 11 11 12 11 12 13 11 13 14 14 16 19 15 10 50 92 96 97 91 79 66 57 69 80 78 67 47 33 33 35 33 36
29 28 27 26 26 25 24 23 23 22 22 22 21 22 21 21 21 20 20 18 18 16 15 13 12 11 9 9 9 9 9 8 9 8 9 9 9 9 9 9 8 8 8 6 7 7 7 9 9 9 8 9 9 10 9 10 12 10 12 11 11 14 9 16 22 17 23 45 46 17 29 86 102 92 95 87 61 49 68 89 89 74 55 38 32 37 35 35
29 28 27 26 25 25 24 24 24 23 23 23 22 23 23 23 22 21 21 20 19 18 17 15 13 12 11 10 10 9 9 8 9 8 8 8 9 10 9 9 9 8 8 7 7 7 7 8 9 8 8 9 8 9 10 8 11 10 11 11 10 12 9 16 30 33 35 63 89 53 28 72 96 82 88 92 63 45 65 88 90 77 61 43 31 37 38 35
28 28 27 26 26 25 24 24 24 24 24 24 24 24 24 23 23 22 22 21 20 19 18 17 15 14 12 11 10 10 9 9 9 9 8 8 8 9 9 9 9 9 8 8 8 7 8 8 8 9 8 9 9 8 9 8 9 10 10 11 10 11 11 12 31 64 74 82 99 80 60 78 81 71 83 91 65 41 57 78 84 78 66 50 34 34 39 38
28 27 27 26 26 25 25 25 24 25 24 25 25 24 24 24 23 23 22 21 21 20 19 18 16 14 13 12 11 10 10 9 9 9 9 9 8 8 9 9 9 9 9 8 8 8 8 8 8 8 8 8 9 8 8 8 8 9 9 9 10 9 11 10 20 58 87 95 96 90 93 85 61 62 82 87 59 34 50 72 83 83 69 56 40 32 36 39
27 26 26 25 25 25 25 25 25 25 25 25 25 25 25 25 25 24 23 22 21 20 19 17 16 15 13 13 12 11 11 10 10 9 9 9 9 8 8 8 9 9 9 8 9 9 8 9 8 8 8 8 9 8 8 8 8 9 9 10 13 10 9 10 12 27 44 60 73 92 106 72 39 63 87 75 47 32 49 71 87 90 73 58 46 34 33 37
27 26 26 26 26 26 26 26 27 26 26 26 26 26 26 26 25 25 24 23 21 20 18 17 15 14 14 13 12 12 11 11 11 10 10 10 9 10 9 8 8 8 9 9 8 9 8 8 9 8 8 8 8 9 8 8 8 8 9 12 15 11 9 11 12 14 15 21 33 68 102 69 35 70 93 68 44 40 52 74 93 94 78 61 49 38 31 34
27 27 27 27 27 28 28 28 28 28 28 28 27 27 27 27 26 25 24 22 21 19 17 16 15 14 14 13 13 12 12 12 11 11 10 10 10 10 9 9 9 8 8 9 9 9 9 9 9 8 8 8 8 9 9 8 8 8 8 10 11 9 9 11 11 12 11 12 12 31 67 59 32 58 84 68 54 49 51 75 97 94 83 68 53 44 33 31
29 29 29 29 29 29 29 30 29 29 29 29 29 28 28 27 25 23 22 20 19 18 17 16 15 15 14 14 14 13 13 12 12 12 11 11 11 10 10 10 9 9 8 8 9 8 9 9 8 9 8 8 8 8 9 8 8 9 8 8 9 9 9 9 10 11 10 12 12 12 25 29 19 33 53 53 55 53 49 72 94 93 87 76 61 52 36 32
31 31 31 31 31 31 31 31 30 30 30 29 29 28 26 24 23 21 20 19 18 17 17 16 16 15 14 14 14 14 13 13 13 13 12 11 11 10 10 10 9 9 9 8 8 8 9 9 8 9 8 8 9 8 8 8 8 9 9 9 9 8 9 9 9 10 11 10 12 12 12 14 14 19 23 30 48 54 47 63 86 90 91 85 69 57 43 36
32 32 32 32 32 32 32 32 31 31 29 28 27 25 23 22 21 21 19 19 19 19 19 18 17 16 16 15 15 15 14 14 14 13 13 12 12 12 10 10 10 10 10 9 8 8 8 8 8 8 9 8 8 9 8 8 8 8 9 9 9 9 8 9 10 9 10 10 11 11 12 13 13 15 14 22 47 52 42 55 77 88 95 93 74 59 50 37
34 33 33 33 33 32 32 31 30 29 27 25 24 22 21 21 21 21 20 20 19 20 20 21 19 17 17 18 16 16 15 15 15 14 14 14 13 12 12 11 10 10 10 10 9 8 8 8 8 8 8 9 8 8 8 8 8 8 9 9 9 10 9 9 11 10 9 9 11 10 11 13 12 14 16 32 58 52 37 47 66 85 99 98 80 60 52 40
35 34 34 33 32 31 30 28 27 26 24 24 24 23 22 22 21 21 21 20 20 20 21 22 21 18 18 19 19 18 17 16 16 15 15 14 14 13 13 12 11 11 10 10 10 9 8 8 8 8 8 8 8 8 8 8 8 7 8 9 9 9 10 10 9 10 10 9 10 10 11 12 12 13 17 48 77 53 31 40 57 85 101 100 87 61 50 46
34 32 31 29 28 27 26 25 26 26 27 29 30 30 28 26 24 23 22 21 20 19 20 21 21 20 18 19 20 19 19 19 17 17 16 15 15 14 13 13 12 12 11 11 11 10 10 9 8 8 8 8 8 8 8 8 8 8 8 8 9 9 9 10 10 10 10 9 10 10 11 11 12 12 17 57 83 48 25 36 52 85 103 100 92 65 49 51
30 30 30 30 30 31 33 34 36 39 42 44 45 44 40 36 32 29 25 23 21 20 20 20 20 21 20 18 19 19 19 20 19 18 17 16 15 14 14 14 13 12 12 11 11 11 11 10 9 8 8 8 8 8 8 8 8 8 8 8 8 9 9 10 10 11 10 10 10 9 11 10 12 12 14 43 57 31 26 38 48 81 104 100 94 70 51 53
42 43 44 46 47 48 50 53 54 57 59 59 58 56 52 50 45 38 33 27 24 22 20 20 20 20 21 20 18 18 19 19 20 20 18 17 16 15 15 14 14 13 13 12 12 12 11 10 10 9 8 8 8 8 8 8 8 7 7 8 7 8 9 9 9 10 10 10 10 9 10 10 11 12 11 20 24 22 41 50 44 73 103 103 96 78 57 54
60 60 59 59 60 59 60 62 63 64 66 66 64 62 59 59 57 52 45 36 30 27 22 20 21 19 20 21 19 18 19 19 20 20 20 19 17 16 15 15 15 14 13 13 12 12 11 11 11 11 10 9 8 8 8 7 8 8 8 8 8 8 8 8 9 9 10 10 10 9 9 9 10 11 12 12 13 32 64 66 47 63 96 105 100 87 67 57
64 65 62 59 61 62 63 65 66 66 68 68 65 62 62 63 63 63 59 50 41 34 26 21 21 21 20 20 20 19 19 19 21 21 21 20 18 17 16 16 15 15 14 13 13 13 12 12 11 12 11 10 9 8 8 8 8 8 8 7 8 8 7 8 8 8 9 10 10 9 9 9 9 10 12 11 14 42 80 85 63 60 86 105 104 96 80 63
61 63 64 62 61 64 66 67 66 67 68 68 63 59 61 62 63 67 69 64 53 43 34 24 20 22 21 20 20 20 19 20 21 22 21 21 19 18 17 17 16 16 15 14 14 13 13 13 12 12 12 10 11 9 9 9 8 9 8 8 8 7 7 8 7 8 8 9 9 10 9 10 10 9 11 10 15 43 79 95 84 71 82 102 105 100 89 72
53 54 58 59 59 63 69 70 69 69 68 65 61 57 58 58 59 66 72 72 64 54 45 30 21 22 22 20 20 20 19 20 21 22 23 21 20 19 17 17 16 16 16 15 15 14 13 14 12 12 13 12 11 10 10 10 9 9 8 8 8 7 8 7 7 8 7 8 8 9 10 10 10 9 11 10 13 34 58 75 88 85 83 94 104 103 93 79
47 45 46 48 49 53 59 65 67 69 70 68 64 60 58 55 56 63 69 72 70 64 54 37 23 22 22 21 21 21 20 20 21 22 23 22 20 19 18 17 17 16 16 16 16 15 14 14 13 13 12 12 12 11 11 10 10 10 9 9 8 8 8 7 8 7 7 8 7 9 9 9 11 9 10 10 11 23 33 51 87 94 81 88 102 105 98 83
48 44 42 43 44 46 48 51 55 59 64 69 69 67 64 60 60 64 68 70 71 68 60 45 29 22 22 22 20 21 21 20 22 23 23 22 20 19 18 18 17 17 17 17 16 16 15 14 14 14 13 13 12 11 11 11 11 10 10 10 9 8 8 7 8 7 7 8 6 8 8 8 11 9 10 10 9 15 15 43 92 91 71 90 104 102 102 92
47 45 42 42 43 45 45 46 48 49 52 58 62 65 66 65 66 68 69 69 71 70 62 53 40 24 22 23 20 20 22 21 22 24 23 22 20 18 18 18 18 18 17 17 18 17 17 15 14 14 14 14 12 11 11 11 11 11 10 10 10 9 8 7 8 7 7 7 6 8 7 8 10 8 11 9 9 13 10 44 94 77 51 81 105 104 106 99
49 48 46 45 44 45 45 45 46 46 47 49 51 53 55 57 60 63 65 66 69 70 63 60 58 40 24 23 22 20 21 21 22 24 24 22 20 19 19 19 19 19 18 18 19 19 17 16 17 17 15 15 13 12 12 11 11 11 10 11 10 10 9 8 8 7 7 7 6 7 7 8 8 8 11 9 9 11 9 40 84 74 51 66 94 108 104 93
57 55 52 50 50 48 48 47 47 47 47 47 47 47 46 48 50 52 56 59 65 70 65 63 68 57 33 23 23 22 21 21 21 23 25 23 21 19 19 19 19 18 19 21 22 20 19 19 21 20 18 17 16 14 13 12 12 11 11 10 10 10 10 9 8 8 7 7 7 7 6 7 7 8 9 9 11 10 9 34 65 77 77 72 83 103 94 81
69 66 61 57 57 56 54 53 52 51 51 51 50 46 43 44 47 47 50 53 57 65 67 64 71 71 47 27 24 24 22 22 22 23 25 25 23 21 19 19 19 19 22 26 27 22 20 24 27 24 22 22 20 16 16 15 14 13 12 11 10 10 10 10 9 8 8 7 7 7 7 7 6 7 8 8 10 9 9 29 53 74 95 88 79 89 85 81
80 78 73 69 66 64 62 60 59 58 57 58 57 50 43 43 45 46 48 50 51 56 62 66 76 82 62 36 28 27 24 22 23 23 25 26 27 25 22 19 18 20 25 32 33 27 24 29 31 28 28 29 24 20 20 19 17 15 13 12 12 11 10 10 10 9 9 8 7 7 6 7 7 6 8 7 9 10 8 17 34 54 82 94 85 79 81 91
85 86 84 82 77 73 71 68 66 65 64 66 64 54 47 45 44 43 46 49 50 51 55 62 76 88 78 54 36 31 27 23 22 24 24 28 31 31 29 23 21 25 32 37 37 31 30 34 32 28 31 34 31 27 25 23 22 19 17 15 13 12 11 10 10 10 9 8 8 8 6 7 7 6 7 7 7 10 9 9 17 24 40 69 88 84 80 93
78 84 89 89 84 82 81 77 73 70 70 72 69 60 52 47 44 42 44 48 51 50 50 55 68 84 94 83 56 36 30 25 22 24 24 27 33 38 36 32 30 33 36 40 40 36 35 40 37 31 33 35 34 33 31 28 27 26 23 20 16 15 13 12 12 11 10 9 8 8 7 6 7 6 6 7 6 8 9 8 15 22 25 42 73 86 80 85
74 80 87 89 88 90 90 85 79 74 72 70 65 58 53 49 45 44 44 46 49 50 48 50 59 74 92 96 75 47 34 30 24 23 25 27 31 39 44 42 39 40 42 45 46 42 41 44 44 40 39 38 35 34 34 31 30 29 28 26 21 19 17 14 14 12 11 10 9 9 8 7 7 7 6 6 6 7 8 8 11 29 56 68 74 81 74 73
76 80 86 89 92 94 91 85 81 79 74 67 59 52 50 51 48 45 46 47 47 49 50 49 53 63 75 85 82 59 40 36 33 26 24 27 30 33 41 46 43 41 47 53 50 46 44 46 48 47 44 43 40 38 37 33 30 28 28 28 26 24 22 18 16 15 13 12 10 9 9 8 7 7 6 6 6 6 7 10 6 20 71 102 93 85 73 63
72 79 86 91 93 93 89 84 83 81 76 69 62 55 53 55 53 49 49 50 48 47 50 50 48 54 64 77 89 79 52 39 39 35 26 25 28 28 31 36 37 38 46 53 52 49 48 47 49 49 47 45 44 44 43 38 32 28 27 27 27 25 24 22 19 16 15 14 12 11 10 9 7 6 7 6 6 7 4 9 8 9 53 101 105 97 85 67
63 72 81 88 91 91 90 90 89 87 84 80 73 65 61 59 57 52 50 50 48 44 47 49 46 49 55 67 89 98 75 47 41 45 39 27 23 26 28 28 28 30 36 43 47 47 47 46 48 50 48 46 45 46 46 43 37 30 26 24 25 25 24 23 21 18 17 15 14 14 11 10 9 6 7 6 5 8 5 6 10 5 27 78 106 107 96 80
54 62 70 76 82 87 91 96 99 97 94 91 83 72 65 62 58 53 48 46 44 42 43 46 47 47 47 54 77 98 91 62 46 48 49 42 31 24 26 29 28 27 28 31 35 38 38 38 40 43 46 45 46 47 46 43 39 33 26 22 23 27 26 23 22 20 18 16 15 15 13 11 11 7 7 8 6 7 6 5 9 6 9 42 82 105 105 91
50 54 59 63 70 80 90 100 105 102 97 95 88 76 68 64 59 53 47 43 44 45 45 47 50 47 42 45 63 87 96 82 65 56 52 51 48 38 30 28 26 27 27 26 27 29 30 29 28 30 33 35 39 44 44 41 37 32 26 21 23 28 28 24 23 21 19 18 15 15 14 12 12 10 7 7 7 6 7 5 6 9 7 19 53 86 102 97
50 51 54 57 62 70 83 96 104 105 101 97 90 79 71 67 62 55 49 44 45 48 48 49 52 48 40 40 50 73 96 98 89 81 66 51 50 53 48 40 33 26 24 23 23 24 26 25 25 24 22 24 27 32 37 38 34 28 23 22 25 30 30 26 26 27 25 23 19 16 15 13 12 12 9 8 7 6 8 6 5 7 6 16 48 79 91 94
52 52 55 57 57 62 74 89 101 105 104 99 91 81 74 68 63 60 54 46 45 48 48 48 49 48 42 39 42 58 86 99 95 95 91 71 56 55 54 54 52 43 35 30 27 25 25 25 24 23 20 20 20 21 27 29 27 24 22 23 27 31 33 31 32 34 32 29 24 21 19 15 13 13 10 9 8 7 8 7 5 8 4 7 40 82 94 92
54 54 56 58 58 58 66 81 95 100 101 100 92 83 76 69 65 64 59 51 46 47 50 47 46 47 44 41 41 47 69 89 85 83 97 99 87 77 69 61 58 57 56 53 46 40 36 32 29 27 23 21 21 21 23 22 22 23 24 26 29 32 35 37 38 39 35 29 26 24 21 17 15 14 12 10 9 8 8 8 5 7 8 2 16 61 96 100
54 55 56 58 59 58 62 73 86 94 98 98 91 84 79 74 71 69 64 56 48 46 51 50 46 48 48 45 43 42 55 75 76 72 89 107 105 100 95 83 71 66 64 61 56 52 51 50 47 43 37 30 27 27 25 25 25 26 28 31 32 34 37 43 48 45 36 28 25 25 23 20 17 15 13 11 10 9 8 9 8 5 7 7 3 26 73 100
56 56 56 58 59 62 64 70 81 89 92 94 93 89 84 78 74 72 66 58 49 45 49 50 45 47 51 48 44 41 46 61 70 71 85 105 107 101 102 101 95 88 79 70 60 52 55 62 61 56 50 42 37 35 34 33 31 31 33 34 35 38 42 50 56 50 37 29 26 25 24 22 21 18 16 13 11 11 9 8 9 7 4 9 5 7 40 80
59 57 58 59 60 64 68 73 80 83 85 92 96 90 84 78 75 73 67 60 54 50 49 48 44 44 49 50 46 42 42 52 64 73 86 102 109 105 103 103 102 101 99 93 81 69 66 69 67 60 54 49 44 42 42 43 44 43 40 39 42 47 52 61 63 50 36 29 27 26 24 23 22 21 19 17 12 11 12 8 8 9 5 6 7 4 17 52
63 59 58 60 63 67 73 78 79 78 80 88 91 86 82 80 76 73 68 62 60 56 52 51 47 43 46 51 50 45 44 47 55 69 88 103 109 108 104 101 100 101 102 102 100 94 87 81 76 67 56 53 52 48 47 51 54 53 50 53 58 61 65 69 62 44 34 30 27 26 24 22 22 22 20 21 17 12 12 11 9 9 8 6 7 6 7 29
68 62 60 62 66 72 80 84 82 79 79 84 88 87 86 83 79 77 73 68 67 63 56 55 55 48 45 50 52 49 47 48 49 62 87 104 106 105 103 101 104 103 102 103 104 102 92 81 76 70 60 56 55 51 47 48 50 52 55 63 71 73 72 66 52 38 32 29 25 25 25 23 22 22 21 20 20 16 12 12 11 10 9 7 6 7 5 14
Wind_Speed
9 10 11 12 13 13 13 14 15 16 17 18 19 20 21 23 24 26 27 29 30 31 32 34 35 36 36 37 37 37 38 38 39 39 39 39 39 39 39 39 38 38 37 36 36 35 34 32 30 28 27 26 25 24 23 22 22 22 21 21 18 16 15 11 10 9 8 7 7 10 9 10 14 16 17 18 20 23 26 28 28 27 27 27 26 26 27 28
12 13 14 15 15 16 16 16 17 18 18 19 20 21 21 23 24 25 27 28 29 30 32 33 34 35 36 37 37 37 37 38 39 39 40 40 40 40 40 40 39 39 38 37 37 37 36 33 31 30 29 28 27 26 25 24 24 23 23 22 20 18 16 13 11 9 8 8 8 10 9 10 14 16 15 16 19 22 24 26 27 26 27 26 26 26 27 29
14 15 16 17 18 18 19 19 20 20 21 21 22 22 23 24 25 26 27 28 29 30 31 32 33 34 35 36 37 38 38 38 38 39 40 41 41 41 41 40 40 39 38 37 37 37 37 35 33 32 32 31 30 28 27 26 25 25 25 24 22 20 18 15 12 8 7 10 10 9 10 10 14 15 14 15 17 20 22 24 25 25 25 26 26 26 27 28
16 17 18 19 20 21 22 22 23 23 24 24 25 25 26 26 27 27 28 29 29 30 31 32 33 33 34 35 36 38 38 38 38 39 39 41 41 42 42 41 41 40 39 38 37 37 37 36 35 34 34 33 33 31 29 28 27 27 26 25 23 21 19 17 14 11 10 12 10 9 11 11 12 13 13 14 15 18 20 22 24 24 24 25 25 25 26 28
18 19 20 21 22 23 24 24 25 25 25 26 26 27 27 28 28 29 30 30 31 31 31 32 32 33 34 35 36 37 38 39 39 39 39 40 41 42 42 42 41 40 39 38 37 38 37 37 36 36 36 36 35 33 31 31 30 28 27 26 25 23 21 19 17 16 14 12 10 9 12 12 11 11 12 13 14 17 19 20 22 23 23 24 24 24 25 27
19 21 21 22 23 24 25 25 26 26 26 27 27 28 28 29 29 30 31 31 32 32 32 33 33 33 34 35 36 37 37 38 39 39 39 40 41 42 42 42 42 41 40 38 38 38 38 37 37 38 38 37 36 34 33 33 32 31 28 27 27 25 23 21 19 18 17 14 12 11 13 13 11 11 11 11 12 15 17 18 20 21 22 23 24 24 24 26
21 22 22 23 24 25 25 26 26 26 27 27 28 28 29 29 30 30 31 31 32 32 33 33 33 33 34 35 36 36 37 38 38 38 39 39 41 42 43 42 42 41 40 39 39 38 38 38 39 40 39 38 36 36 35 34 34 33 31 29 28 26 24 23 21 20 18 16 14 13 14 14 12 12 11 10 10 13 15 16 17 19 20 21 22 23 24 24
22 23 24 25 25 26 26 27 27 27 27 28 28 29 29 29 30 30 31 31 32 32 32 33 33 34 34 35 36 36 37 38 38 38 39 39 40 41 42 43 42 41 40 40 40 39 39 40 40 40 39 38 38 38 37 36 35 34 33 31 30 28 26 24 22 21 20 18 16 13 14 15 14 12 10 10 10 10 12 13 15 17 19 20 21 22 23 23
24 25 25 26 27 27 27 28 28 28 28 28 28 29 29 30 30 30 31 31 31 31 32 32 32 33 34 34 35 37 37 38 38 39 39 39 40 41 42 43 42 41 40 40 41 41 42 41 41 40 39 39 40 39 38 37 36 35 34 33 32 30 27 25 23 23 22 20 19 16 15 16 15 13 10 11 12 11 11 12 14 16 17 18 20 21 22 23
25 26 27 28 28 28 28 29 29 29 29 29 29 29 29 30 30 31 31 31 31 31 31 31 32 32 32 33 34 37 37 37 39 39 39 39 40 40 41 42 42 41 40 41 42 43 42 41 40 41 40 40 40 40 39 38 38 36 35 34 33 31 28 25 24 24 22 21 22 19 18 17 16 14 12 12 13 12 11 11 13 14 15 17 18 19 21 22
27 27 28 29 29 29 29 29 29 29 29 29 29 29 30 30 31 31 31 31 31 31 31 31 31 31 31 31 32 35 37 37 38 39 39 40 40 40 41 41 42 41 41 42 43 42 41 40 41 41 41 41 41 40 40 40 39 38 37 36 35 33 30 26 23 24 21 20 24 23 21 19 16 14 13 12 13 12 11 10 11 12 13 14 16 18 19 21
28 28 29 29 30 30 30 30 30 30 30 30 29 30 30 30 31 31 31 31 31 31 31 31 31 31 31 30 31 33 35 36 37 38 39 40 40 40 40 41 41 41 42 43 43 41 39 40 41 42 42 42 42 42 42 41 40 40 38 37 36 34 32 27 24 25 23 24 25 24 22 20 18 15 13 12 12 12 11 10 9 10 11 13 14 16 17 19
29 29 30 30 30 30 30 30 31 31 30 30 30 30 30 31 31 31 31 31 31 31 31 31 31 31 31 30 30 32 34 35 36 37 39 40 40 41 41 41 41 41 42 43 42 40 39 40 41 42 43 43 43 43 43 42 41 40 39 38 37 36 34 30 27 26 26 27 27 23 23 21 18 16 13 13 13 12 12 11 9 9 10 11 12 14 16 17
30 30 30 30 31 31 31 31 31 31 31 31 31 31 31 31 31 32 32 32 31 31 31 31 31 31 30 31 30 31 32 34 34 36 38 39 41 41 42 42 42 41 42 42 41 40 39 40 41 43 44 44 44 44 43 42 42 41 39 39 38 37 36 34 33 31 28 30 28 23 22 22 19 16 14 14 14 12 13 12 10 9 8 10 11 13 14 16
31 31 31 31 31 31 31 31 31 32 32 31 31 31 31 32 32 32 32 32 32 31 31 31 31 31 30 30 31 30 31 33 34 35 36 38 40 41 42 42 42 42 42 42 40 40 40 39 41 43 44 43 44 44 43 43 42 41 40 39 39 38 37 36 37 36 34 34 31 23 21 22 20 16 14 13 13 12 13 11 10 9 8 8 10 12 13 15
31 32 32 32 32 32 32 32 32 32 31 31 31 31 32 32 32 32 32 32 32 31 30 30 30 30 30 30 30 30 31 32 33 34 35 37 39 41 42 43 42 42 42 41 40 40 40 39 41 43 42 42 43 43 43 43 42 41 41 40 40 39 39 38 38 39 38 38 35 30 25 23 20 16 13 12 12 12 12 11 10 10 9 7 8 11 12 14
32 32 33 33 33 32 32 32 32 32 31 31 31 32 32 32 32 32 32 32 31 31 30 30 30 30 30 29 30 30 30 31 33 34 35 36 37 39 41 42 43 42 42 42 41 40 40 40 41 41 41 41 41 42 43 43 42 42 42 42 41 40 40 40 40 40 40 40 39 36 32 29 25 22 18 14 13 13 13 12 10 10 10 7 7 9 12 13
33 33 33 33 33 33 33 33 33 32 32 32 32 32 32 32 32 32 32 32 31 30 30 29 29 29 29 29 29 30 30 31 32 33 34 35 37 38 39 41 42 43 43 42 42 41 41 41 41 41 40 40 39 40 42 43 43 43 43 42 42 41 41 41 41 42 42 42 41 40 38 34 31 30 26 20 17 15 15 14 12 12 12 9 7 8 11 12
33 33 33 33 33 33 33 33 33 33 32 32 32 32 32 32 32 32 32 31 30 29 29 28 28 28 28 28 29 29 30 30 31 32 34 35 36 37 38 39 41 43 43 43 43 42 42 42 41 41 40 40 39 39 40 42 43 43 43 42 42 42 41 42 43 43 43 43 43 42 40 38 35 34 31 26 21 17 16 16 15 13 12 11 7 6 9 10
33 33 33 33 33 33 33 33 33 33 33 32 32 32 31 31 31 30 30 29 28 28 27 28 28 27 27 27 28 28 29 30 31 32 33 34 35 36 37 38 40 41 43 44 44 44 43 42 42 42 41 40 39 39 40 41 42 43 43 42 42 42 42 43 43 44 44 44 44 44 42 40 37 36 32 28 25 21 18 18 17 14 13 12 8 5 7 9
34 33 33 33 33 33 33 33 33 33 33 32 31 31 29 28 27 28 28 27 27 26 26 27 27 26 25 26 27 27 28 29 30 31 32 33 34 35 36 38 39 40 42 43 44 44 44 43 42 41 41 40 40 39 39 40 41 42 42 42 43 43 43 43 44 44 44 44 44 44 43 41 39 37 33 30 29 25 20 19 17 14 14 13 10 6 4 7
34 34 33 33 33 33 33 33 32 32 31 29 28 27 26 25 25 25 26 26 26 25 24 25 27 26 24 24 25 26 27 28 29 30 32 32 33 34 35 37 38 39 40 42 43 44 44 44 43 42 41 41 40 40 39 39 40 40 40 41 42 42 43 43 43 43 43 43 43 43 43 42 41 39 35 32 31 27 23 21 18 15 16 14 11 8 4 5
34 34 34 33 32 32 31 30 29 28 26 26 25 25 25 24 23 23 24 24 24 24 23 24 25 26 25 23 23 25 25 26 28 29 30 31 32 33 34 36 37 38 39 40 41 43 44 45 43 42 42 41 40 40 40 40 40 39 39 40 40 41 42 42 42 43 43 43 43 43 43 43 42 40 37 34 31 28 25 23 19 17 18 16 13 11 6 3
33 32 32 31 29 28 27 26 25 25 24 24 24 24 24 24 23 23 22 23 23 23 23 23 23 25 25 23 22 23 24 25 26 28 29 30 31 32 33 34 36 37 38 38 39 41 43 43 43 43 43 42 41 41 41 41 41 40 39 39 39 40 41 42 43 43 43 44 44 44 44 43 43 42 40 37 34 30 27 26 23 19 20 19 15 13 9 4
31 30 29 28 27 26 25 25 24 24 24 24 24 24 24 24 24 23 23 22 22 23 24 23 22 23 23 24 23 22 23 24 25 27 28 29 30 30 31 32 34 35 36 37 38 40 41 42 43 45 44 43 42 42 42 42 41 40 40 39 39 39 40 42 43 43 44 45 45 45 45 45 44 44 42 40 36 32 30 29 26 22 21 21 17 15 12 7
29 29 29 27 27 26 25 25 24 24 24 24 24 24 24 23 24 24 24 23 22 23 24 24 23 22 21 22 23 22 22 23 25 26 27 28 29 29 30 31 32 34 35 36 37 38 39 40 42 44 44 44 43 43 42 42 41 41 41 41 40 40 40 41 42 43 44 45 46 46 46 45 45 45 44 42 37 33 31 31 29 25 23 23 20 17 15 10
30 31 31 29 28 27 27 26 26 25 25 25 25 24 24 23 23 23 24 24 23 22 24 24 23 23 22 21 21 22 22 22 23 25 26 27 27 28 29 30 31 32 33 34 35 36 37 38 40 42 43 44 43 43 42 41 41 41 42 42 41 41 41 41 41 42 43 45 46 46 46 45 46 46 44 42 38 34 33 33 31 28 25 25 23 20 17 14
32 32 33 32 31 30 29 29 28 28 27 27 27 25 24 23 23 23 24 25 24 23 23 23 23 22 22 21 20 21 22 21 22 24 25 26 27 28 28 29 30 30 31 33 34 35 36 37 38 39 41 42 43 42 42 41 40 41 42 42 42 42 41 41 41 41 42 44 46 45 45 45 45 45 44 43 40 37 35 35 34 31 28 27 26 23 20 17
32 31 31 32 32 31 31 31 31 30 30 30 29 27 26 24 23 23 24 25 25 23 22 23 22 22 22 21 20 21 22 21 22 23 24 25 26 27 28 29 29 29 30 31 33 34 35 36 37 37 39 41 42 41 41 41 41 41 42 43 43 43 43 43 43 42 42 44 45 45 45 45 45 45 45 44 42 41 39 37 36 35 32 29 28 25 22 19
30 29 28 29 29 29 30 31 31 31 31 32 31 30 28 27 25 24 25 25 25 24 23 21 21 21 22 21 20 21 21 21 22 23 24 25 26 27 27 28 28 28 29 30 31 33 33 34 35 35 37 39 40 41 41 41 41 42 42 43 44 44 43 44 44 44 43 43 44 45 45 46 46 46 46 45 45 44 42 38 37 36 33 31 29 27 25 22
28 28 27 26 26 26 27 27 28 29 29 30 31 31 30 28 27 26 26 26 26 25 23 21 19 20 20 21 20 20 21 21 21 22 23 24 25 26 26 27 27 28 29 29 30 31 32 33 33 33 35 37 39 39 39 40 40 41 41 42 44 44 44 45 45 45 44 44 44 45 46 47 48 47 47 47 47 46 44 41 39 36 33 32 31 30 27 24
26 26 25 25 24 25 25 25 26 26 26 27 28 28 28 27 26 26 26 27 27 26 24 21 19 19 20 21 20 20 20 20 21 22 23 24 24 25 26 26 27 28 28 28 29 30 31 31 31 32 33 35 36 36 37 38 39 40 41 42 43 43 44 45 45 45 45 45 45 46 46 47 48 48 48 48 48 46 45 44 43 38 35 34 34 32 30 26
26 26 24 24 23 23 24 24 24 25 25 26 26 26 26 24 23 24 26 26 27 27 25 21 19 19 20 21 20 20 20 20 20 21 22 23 24 25 25 26 27 28 27 27 28 29 29 28 29 30 32 33 34 34 35 36 38 39 40 41 42 42 44 44 45 45 46 47 46 46 46 47 48 49 49 48 48 47 46 47 45 40 37 36 36 35 32 29
28 28 26 25 25 25 24 24 24 24 24 25 25 26 25 23 22 23 25 26 27 28 27 22 19 19 21 21 20 19 20 20 21 21 22 23 24 24 25 26 27 26 26 26 28 29 28 27 28 29 30 31 32 32 33 35 36 37 39 40 40 41 43 43 44 45 46 47 47 47 47 47 48 49 49 49 49 48 48 48 46 43 40 39 38 37 34 31
30 31 29 28 27 27 26 26 26 25 25 25 26 26 24 22 22 23 24 25 26 28 28 25 20 20 21 21 20 19 19 20 21 21 22 23 24 24 26 27 26 25 25 27 28 28 27 26 27 29 29 29 30 30 31 32 34 36 37 38 39 40 41 42 42 44 45 47 48 48 48 49 49 49 49 50 50 49 49 50 48 45 44 42 41 39 35 32
32 32 32 31 30 29 29 28 28 28 28 28 28 27 23 22 22 23 23 24 26 28 28 26 23 22 22 21 19 18 18 19 20 21 23 24 23 24 26 26 24 24 25 27 28 28 26 26 28 28 27 28 29 29 29 31 32 34 34 35 37 38 39 40 41 42 44 46 47 48 50 50 50 50 50 51 51 51 51 52 51 49 47 45 44 41 36 32
33 33 33 33 32 31 31 30 29 29 29 30 31 29 25 23 23 22 22 22 25 28 28 26 24 23 23 22 21 19 19 19 20 21 22 23 25 26 27 25 23 24 26 28 29 28 26 27 28 27 27 28 29 29 29 30 30 31 33 34 35 36 36 38 39 41 44 45 46 48 50 51 52 52 51 51 52 52 51 52 52 52 51 49 48 46 40 34
34 33 33 34 33 32 32 31 31 30 31 32 33 32 28 26 24 22 21 22 24 27 28 28 26 24 23 23 23 22 20 18 19 21 22 24 26 27 27 25 23 25 27 28 28 28 27 28 28 26 27 29 29 29 30 31 30 31 32 33 33 34 35 36 37 39 42 44 46 48 50 52 53 54 53 52 52 52 52 52 52 53 53 52 51 50 45 38
36 35 35 35 34 32 32 32 32 32 32 33 34 33 31 29 27 24 22 22 24 27 28 29 28 26 26 25 24 23 21 19 18 20 22 25 27 29 28 27 26 26 27 27 28 29 28 28 28 28 28 30 30 30 31 32 32 32 31 32 33 33 34 35 36 37 39 42 44 47 50 53 55 55 54 53 52 52 53 52 53 53 52 52 52 53 50 43
38 37 36 35 34 34 33 33 34 34 35 36 36 35 33 31 29 27 25 24 24 26 28 29 29 30 29 27 26 25 23 20 18 18 21 25 28 30 30 31 31 29 28 29 31 31 30 29 30 31 31 31 31 30 31 33 33 32 31 31 32 33 34 35 36 37 37 39 42 45 49 53 55 56 55 54 53 53 53 53 54 54 53 52 52 52 51 45
38 37 37 36 36 36 35 35 35 36 36 37 36 35 34 32 30 29 27 26 25 25 27 30 31 32 31 29 27 27 25 23 20 19 21 23 27 29 31 33 34 32 31 32 34 33 32 32 32 33 34 33 32 32 33 35 35 33 32 31 32 34 35 36 36 37 37 38 40 44 47 51 55 56 56 56 55 54 54 53 54 56 56 55 52 51 51 47
38 37 37 38 38 37 36 35 35 36 36 36 36 35 34 33 32 31 29 29 28 26 28 31 32 33 34 31 28 28 28 26 23 22 22 22 24 27 30 33 35 34 33 34 35 36 35 35 35 35 35 35 35 35 36 37 37 36 34 32 32 34 35 36 37 38 38 38 39 42 45 49 52 55 56 57 57 56 55 54 55 58 60 59 56 52 51 49
39 38 38 39 38 37 36 34 34 35 35 35 36 36 35 35 35 33 32 31 28 27 28 30 32 34 36 34 31 30 31 29 27 25 25 24 23 23 26 31 34 33 34 36 37 38 39 38 38 38 38 38 37 38 39 39 39 39 37 34 33 33 35 36 37 38 39 39 40 41 44 46 49 53 57 57 58 58 57 56 57 58 61 63 61 56 52 51
39 39 40 39 38 37 35 34 34 35 35 35 37 37 37 38 38 35 33 31 28 27 27 29 33 37 38 35 34 33 32 31 30 29 29 28 26 24 24 28 31 32 34 35 36 38 39 39 39 39 39 39 39 40 40 41 40 40 38 35 33 34 35 35 36 37 38 40 41 42 43 44 47 52 56 58 58 59 60 59 59 59 61 63 64 61 57 54
38 38 39 39 39 37 35 34 35 36 36 37 38 38 39 40 39 36 33 31 29 28 28 29 33 38 39 37 35 35 34 32 31 31 32 32 30 28 27 27 29 31 32 32 33 34 36 37 38 38 38 38 39 40 40 41 42 40 38 35 34 34 35 35 34 34 35 38 41 43 44 45 47 49 54 57 58 59 61 62 61 60 61 64 65 64 61 59
40 38 38 38 38 37 37 36 36 36 37 38 39 39 40 40 39 36 34 32 31 29 29 30 33 37 40 38 37 37 37 36 34 32 33 34 33 32 31 31 31 32 32 31 31 31 33 35 36 37 37 36 35 36 38 41 41 39 37 36 34 34 34 34 34 32 32 35 39 42 45 47 47 49 52 55 58 59 62 64 63 62 62 64 66 65 63 62
43 40 38 38 38 37 37 38 38 38 38 39 40 40 40 40 38 36 35 34 33 30 30 31 32 34 38 39 38 38 39 40 38 33 31 33 34 34 34 36 36 36 35 35 35 34 33 34 34 36 37 35 31 32 36 39 38 37 37 37 35 35 34 34 34 33 33 35 37 41 45 47 48 49 51 54 57 59 61 64 65 65 63 65 68 67 65 64
46 44 41 39 38 37 37 38 39 39 39 40 40 40 39 39 37 36 36 36 34 31 30 31 31 31 34 38 40 40 40 42 41 35 31 31 33 35 37 39 40 39 39 40 41 39 37 36 36 37 39 37 34 33 34 35 36 37 37 37 36 36 34 33 34 34 34 36 37 40 43 46 48 50 51 53 56 58 61 64 66 67 66 65 68 70 68 67
48 47 45 42 40 39 37 38 39 40 40 40 40 39 38 37 37 37 38 37 35 32 31 32 31 30 31 36 41 41 41 43 43 39 34 32 33 34 37 40 42 42 43 45 46 44 41 39 40 41 42 41 39 38 37 37 37 38 38 37 37 36 35 34 34 33 34 36 36 37 39 42 46 48 51 53 55 57 60 63 66 68 68 67 68 70 72 71
49 49 47 45 42 41 40 39 40 41 39 39 39 38 38 37 37 37 38 37 34 31 31 32 31 30 30 33 39 42 41 43 45 42 37 34 33 34 36 39 41 42 44 48 49 47 45 44 44 45 45 44 42 41 40 39 39 39 39 37 36 36 35 34 34 34 35 36 36 35 36 39 42 45 49 52 55 57 59 62 65 68 70 70 68 70 73 74
51 50 49 47 44 43 42 42 43 41 39 38 38 38 37 36 36 36 36 35 34 31 29 30 30 29 29 30 36 41 42 43 46 45 40 36 35 35 36 38 40 41 44 47 49 49 48 48 47 47 46 45 44 42 40 38 38 39 38 35 35 36 35 34 34 34 35 36 35 35 36 37 38 40 45 50 54 57 59 61 64 67 70 72 70 70 74 76
53 52 51 48 46 45 44 45 46 43 39 37 37 37 37 37 36 37 37 36 36 34 31 31 33 32 31 31 34 38 40 42 45 47 44 40 39 38 36 37 40 42 44 46 47 49 50 49 47 46 45 43 42 41 38 36 35 35 34 33 33 34 34 33 33 34 35 35 35 35 36 36 37 38 42 47 52 57 59 61 63 66 69 72 73 72 73 77
Wind_Direction
292 290 289 287 284 282 280 278 276 274 272 270 268 265 263 260 257 254 251 249 248 248 248 249 249 248 247 246 246 246 246 247 247 246 246 246 245 245 244 243 242 242 241 242 243 244 243 243 245 246 245 245 245 245 243 241 243 246 251 255 257 261 266 277 289 294 304 307 319 341 354 356 356 0 7 4 1 9 12 14 15 15 17 19 19 19 17 15
295 294 293 292 290 289 287 285 283 281 279 277 275 272 270 267 264 260 257 253 251 248 247 247 248 249 249 248 247 246 245 246 246 246 246 246 246 245 244 244 243 242 241 241 241 243 243 243 243 244 244 244 244 244 244 241 241 243 246 251 254 258 263 270 282 295 300 305 321 332 335 342 348 352 358 1 360 4 11 13 13 14 16 18 18 18 17 16
292 292 292 292 291 291 289 288 286 284 282 281 279 276 274 271 269 266 262 259 255 252 249 247 246 246 247 248 248 247 246 245 245 245 245 245 245 245 244 243 243 242 241 240 240 242 243 243 242 243 243 243 242 242 243 243 241 242 244 247 250 253 258 263 271 281 296 310 316 319 321 328 337 342 346 354 0 1 8 12 11 12 15 17 18 18 18 17
290 290 290 291 291 290 289 288 287 286 284 283 281 279 277 274 272 269 266 263 260 256 253 250 247 245 245 245 246 247 246 245 244 244 244 244 244 244 244 243 243 242 241 240 240 240 241 242 242 242 242 242 241 240 241 243 243 242 243 245 248 250 253 257 261 262 281 304 312 309 308 315 326 334 337 346 357 358 6 12 10 10 14 17 18 17 18 18
291 291 291 291 291 290 289 289 288 287 286 285 283 281 280 278 275 273 270 267 264 261 257 254 250 247 245 244 243 244 245 246 245 244 244 245 244 244 243 243 242 242 241 240 239 240 240 241 241 241 241 240 241 241 240 241 242 242 243 244 246 247 249 252 254 258 269 285 298 295 293 305 318 325 333 342 351 354 2 11 9 8 12 16 17 16 18 19
292 292 292 291 291 290 290 289 289 288 288 287 285 284 282 280 279 276 274 270 267 264 261 258 255 251 248 245 244 243 243 244 244 243 243 244 245 244 243 242 241 241 240 239 239 239 240 240 240 240 240 240 241 241 241 240 241 241 242 242 244 245 246 249 251 256 264 271 279 281 285 296 307 316 328 336 342 347 357 8 9 7 9 14 16 16 18 19
293 293 292 292 291 291 291 291 291 291 290 289 288 286 285 283 282 280 277 275 271 268 264 261 258 255 252 249 246 244 242 242 242 243 242 243 244 245 244 243 241 240 239 239 239 239 239 239 239 239 239 239 239 240 240 240 241 242 242 241 242 243 243 245 248 253 259 264 271 278 283 283 292 311 322 325 330 340 350 3 9 7 8 11 14 15 16 18
294 294 294 293 293 293 293 294 293 293 292 291 290 289 288 286 285 283 281 278 275 272 268 265 261 257 254 252 249 247 244 242 241 241 241 241 242 244 244 244 242 240 239 238 238 238 238 238 238 239 239 239 238 238 239 239 241 242 242 241 242 242 242 243 246 250 256 261 266 272 276 273 283 303 313 312 315 327 341 359 7 7 9 9 12 13 13 16
295 295 295 295 295 295 295 296 296 295 294 293 292 291 290 289 287 286 284 282 279 276 273 269 265 260 256 254 252 249 246 244 242 240 240 240 240 241 243 244 243 241 239 238 237 236 236 237 238 238 238 238 238 238 238 238 239 239 241 241 241 242 242 242 244 248 253 258 262 263 262 263 274 288 299 304 305 314 330 355 4 6 11 8 9 12 11 14
295 295 296 296 296 297 297 297 297 297 296 295 294 294 293 291 289 288 286 284 282 280 277 274 269 264 259 255 253 250 247 245 243 241 239 239 239 239 240 242 243 242 240 238 237 236 236 236 237 237 237 238 238 238 238 237 237 237 237 239 240 240 241 241 243 247 252 259 262 260 256 256 263 274 285 292 296 306 320 346 359 1 10 8 6 10 10 11
295 295 296 296 297 298 298 298 298 298 297 297 296 295 294 293 291 289 288 286 285 283 280 277 273 269 264 258 255 253 248 245 244 242 240 239 238 238 238 239 241 241 240 239 238 236 236 236 237 237 236 236 237 237 236 236 236 235 235 235 237 238 238 237 240 244 245 250 257 256 254 253 257 265 272 278 287 298 309 331 348 353 6 8 4 7 9 9
294 295 296 296 297 298 298 298 298 298 298 298 297 296 295 293 292 291 289 288 286 284 282 279 276 272 268 262 257 255 251 245 244 243 241 239 238 238 237 237 238 238 239 239 238 237 235 235 236 236 235 235 235 235 234 234 235 235 234 234 234 235 234 231 235 241 234 230 239 247 249 251 255 255 260 270 278 290 297 310 332 344 359 7 3 4 7 6
294 295 296 296 297 298 298 299 299 299 299 299 298 297 296 294 292 291 290 289 287 285 283 280 277 274 271 266 260 257 254 248 244 242 241 239 238 237 236 236 235 236 237 238 238 237 235 235 235 235 235 234 234 234 234 233 234 234 234 234 234 233 232 226 227 234 232 224 226 237 243 244 248 246 253 266 269 280 284 292 316 333 350 4 1 1 5 4
294 295 296 296 297 298 298 299 300 300 300 300 299 298 296 294 293 292 291 289 288 286 283 281 278 275 272 268 263 258 256 252 246 242 240 239 237 236 236 235 234 233 234 236 236 236 235 234 234 235 234 234 234 234 234 233 233 234 233 233 233 233 231 226 223 225 227 225 224 233 238 236 241 247 255 260 259 271 277 282 302 319 336 359 359 356 2 5
295 296 297 297 298 299 299 300 300 300 300 300 299 298 297 295 294 293 291 289 288 286 283 281 278 276 272 268 265 260 256 253 249 244 241 239 237 236 235 235 234 233 233 234 234 234 234 234 234 234 234 234 234 234 234 233 233 233 233 232 232 232 231 228 225 223 225 228 228 228 231 233 240 248 251 248 251 267 271 273 291 305 317 349 358 351 357 6
296 297 298 298 299 299 300 300 300 300 300 300 299 298 297 296 294 293 291 289 288 286 283 281 278 275 272 269 265 261 256 253 251 247 243 240 238 236 235 235 234 233 232 232 232 232 232 232 234 235 234 233 234 234 235 234 233 233 232 231 231 230 230 229 227 226 225 229 229 226 226 233 240 238 234 236 249 265 267 267 280 292 300 332 355 349 351 3
298 298 299 299 299 300 300 300 300 300 300 300 299 298 298 296 295 293 291 290 288 286 283 280 277 275 272 269 265 261 257 253 250 248 245 242 239 237 236 235 234 233 232 231 230 230 230 231 233 235 234 234 233 234 234 234 233 232 232 231 230 229 228 227 227 227 226 227 229 227 226 233 237 232 228 236 248 259 261 259 267 278 289 312 345 349 347 355
298 299 299 300 300 300 301 301 301 301 301 301 300 299 298 297 296 294 291 290 288 285 283 280 276 273 271 268 266 262 258 253 250 247 245 243 241 238 236 235 234 233 232 231 230 229 228 229 231 233 234 234 233 233 233 233 232 232 232 231 231 230 228 227 226 226 227 227 228 229 228 231 235 233 233 240 245 251 256 254 256 267 280 295 323 345 345 346
298 299 299 300 301 301 302 302 302 302 302 301 300 300 299 298 296 294 292 290 288 285 282 279 275 272 270 267 264 262 258 254 250 247 244 242 241 239 237 236 234 233 232 232 231 229 228 227 228 230 231 232 232 232 232 233 232 232 231 231 230 230 229 228 227 226 226 227 227 228 229 230 232 234 235 238 239 241 250 252 251 258 272 282 298 332 343 343
299 299 300 301 301 301 302 302 303 303 302 302 302 300 300 299 297 295 292 290 288 285 282 279 274 271 269 267 264 261 258 254 251 247 244 242 240 238 237 236 235 233 232 232 231 230 229 228 228 228 229 231 231 232 232 232 232 232 231 230 230 230 229 229 228 227 226 226 227 228 229 229 230 232 233 234 231 233 244 248 245 250 264 273 281 308 335 341
299 300 300 301 301 301 302 302 303 303 303 303 302 301 300 299 298 297 295 293 289 286 283 280 276 271 268 267 265 261 257 254 250 248 244 242 240 238 237 236 235 234 233 232 231 231 230 229 229 228 228 229 230 231 232 233 233 232 231 231 230 229 229 229 229 228 228 227 227 227 228 228 229 230 231 230 227 230 240 243 239 243 256 263 268 277 314 333
299 300 300 301 301 301 302 302 303 303 304 304 303 302 302 301 301 300 299 297 293 289 285 282 279 274 269 266 265 261 258 254 250 248 245 242 240 238 237 236 235 234 233 232 232 231 231 230 229 228 228 228 229 230 231 233 234 233 232 231 231 230 230 230 230 229 229 229 229 228 228 228 229 229 229 227 226 230 237 238 232 237 249 254 258 258 272 322
299 300 300 300 301 302 303 303 304 304 305 305 304 304 304 305 305 304 303 301 297 293 288 283 281 277 271 265 263 261 257 254 251 248 246 243 240 238 237 236 235 235 234 233 232 231 231 231 230 230 229 228 229 229 230 231 233 233 232 231 231 232 231 231 230 230 230 230 230 229 229 229 229 229 227 224 225 229 235 235 227 230 243 246 248 249 249 291
299 299 300 301 302 303 304 305 305 305 305 304 304 304 305 306 307 307 307 305 302 299 292 286 282 279 276 269 262 259 256 253 251 249 247 244 241 238 237 237 237 236 235 234 233 233 231 231 231 231 230 229 229 229 229 230 231 232 232 231 230 230 231 230 230 229 229 229 229 228 228 228 229 229 227 225 225 229 232 231 224 223 237 242 240 243 244 251
300 301 301 302 303 304 304 305 305 305 304 304 304 304 305 306 306 307 308 308 307 305 299 292 285 280 277 273 265 259 256 253 250 249 247 245 243 240 238 237 237 237 235 234 233 233 232 230 230 231 231 230 229 229 228 229 229 230 231 231 230 230 231 231 230 229 229 228 228 227 226 226 227 228 228 227 227 227 227 227 222 218 231 240 236 237 242 239
301 301 301 301 302 303 303 303 303 303 303 303 303 304 306 307 307 307 306 306 309 308 303 298 291 284 277 272 268 262 258 254 250 248 247 246 244 241 239 237 237 237 236 235 234 234 233 231 231 231 231 230 230 229 229 229 229 229 230 230 230 229 230 230 230 230 229 229 228 227 226 225 226 227 228 228 225 222 221 222 220 216 226 236 234 232 239 237
299 300 299 299 299 300 300 300 300 300 300 300 300 301 304 306 307 307 306 304 305 307 307 302 296 289 280 273 269 265 260 256 251 248 246 245 244 242 240 238 237 237 236 236 236 235 234 233 231 232 232 231 230 230 230 229 230 230 230 230 230 229 230 230 230 230 230 230 229 228 227 227 226 226 227 227 223 217 216 219 219 219 223 231 232 229 233 233
297 297 297 296 296 296 296 295 295 294 294 294 294 296 299 300 303 306 306 304 302 304 308 306 299 291 284 277 271 266 262 258 253 248 246 245 244 242 240 238 237 237 236 236 236 234 234 233 232 232 232 232 231 230 230 230 230 231 231 231 231 229 229 230 230 230 230 231 230 228 228 228 228 227 227 226 222 215 215 217 219 221 223 225 228 227 227 228
298 297 296 296 295 294 293 291 290 290 290 289 289 291 292 294 297 300 303 303 301 301 303 305 301 293 285 279 273 268 264 260 254 249 246 245 243 242 240 238 237 236 236 236 236 235 233 233 232 231 232 232 231 230 230 230 231 231 231 231 231 229 229 228 228 228 229 230 230 229 228 228 228 227 227 226 222 217 216 218 220 222 222 221 223 225 223 223
302 301 299 298 298 296 294 292 290 288 288 288 287 288 288 289 292 295 297 298 299 298 297 301 303 295 287 282 276 271 266 261 256 251 246 245 243 241 240 239 237 236 236 236 236 236 235 234 232 231 232 232 231 230 229 230 231 231 231 231 231 230 229 229 228 227 227 229 230 229 228 227 226 226 226 225 222 220 218 219 220 219 219 219 221 224 223 221
305 304 304 303 302 301 298 296 294 292 291 290 288 287 287 287 289 291 292 293 295 295 294 297 300 295 288 283 276 271 267 263 258 252 247 245 244 242 240 239 237 237 237 236 237 237 236 235 233 233 233 234 232 230 229 229 231 232 232 233 232 231 230 230 229 228 227 228 228 229 228 227 226 225 224 224 223 221 218 217 217 216 216 217 219 223 224 222
306 306 308 306 304 302 300 299 297 296 295 292 290 289 287 286 287 288 287 287 289 290 291 293 297 295 289 284 279 272 266 262 258 253 249 246 244 241 238 237 236 236 236 236 236 237 236 235 235 234 235 235 234 232 230 230 231 231 232 233 233 233 232 231 230 229 228 227 228 228 229 228 227 225 224 224 223 221 218 215 215 216 217 217 217 220 222 221
305 307 309 309 305 303 301 300 298 296 294 292 290 289 287 286 286 285 284 284 284 285 287 290 294 295 289 284 281 277 269 262 257 252 249 246 244 241 237 235 234 234 235 235 236 236 236 235 235 235 236 237 236 234 233 232 232 232 232 232 233 233 233 232 231 230 229 228 228 228 229 230 228 226 224 223 223 221 218 214 213 215 216 217 217 218 221 220
305 305 307 308 307 306 305 303 302 300 297 294 291 287 285 285 284 283 282 282 281 281 282 284 286 287 285 283 283 281 275 267 259 252 247 245 243 241 237 234 233 233 234 235 235 234 233 232 233 234 235 237 237 235 235 234 234 233 233 232 232 233 233 232 232 231 229 229 228 227 228 229 229 228 226 224 222 220 218 215 213 212 212 215 217 217 219 220
302 302 304 305 304 304 305 304 304 304 301 299 296 290 285 283 281 279 279 280 279 276 277 279 281 279 279 281 284 284 280 270 261 253 246 243 242 241 237 233 231 229 230 232 234 233 230 228 230 232 234 236 237 236 236 237 237 236 235 234 233 233 233 232 232 232 231 230 228 227 227 228 229 229 227 225 222 220 217 216 214 211 210 212 216 215 215 218
299 300 301 301 300 300 301 302 302 302 301 300 298 293 289 284 279 275 275 276 277 274 272 274 277 276 275 278 281 282 279 270 261 253 247 242 241 241 239 235 230 227 227 229 232 233 230 227 228 229 232 235 237 237 237 238 239 239 237 236 235 234 233 232 232 232 231 230 229 228 227 227 228 228 228 226 224 220 218 216 214 213 212 213 215 215 213 214
296 296 297 296 296 297 297 298 298 298 298 296 295 294 293 289 281 274 271 271 273 272 269 267 269 273 274 274 274 275 274 269 260 253 247 242 240 240 240 237 230 225 225 227 230 231 230 230 230 228 229 233 237 239 239 239 240 241 241 240 238 236 235 233 232 232 231 230 229 228 228 227 227 227 227 227 225 222 219 217 216 216 216 216 217 217 215 211
296 294 293 292 292 293 293 293 293 293 292 291 291 292 293 290 287 280 270 265 266 268 267 264 262 265 268 268 268 268 269 268 261 253 246 240 239 240 241 239 232 227 227 229 231 232 231 233 235 232 231 233 235 237 240 241 241 242 244 244 242 240 238 236 234 233 232 230 229 228 228 228 227 227 226 226 226 224 220 217 216 216 217 217 217 219 218 211
296 294 291 290 290 289 288 288 289 288 288 288 289 292 292 291 290 286 277 267 262 263 264 262 259 257 257 259 260 261 264 267 264 257 249 241 237 238 240 241 237 232 231 233 234 234 232 234 237 237 237 238 238 237 239 241 240 240 242 245 247 246 243 240 238 236 234 231 229 228 228 227 227 227 227 226 225 225 222 218 216 214 214 216 217 219 220 215
296 294 291 289 288 286 285 286 287 287 287 288 291 294 294 291 289 287 283 274 264 261 261 260 257 254 252 254 256 256 256 259 261 258 251 244 240 238 237 239 239 236 233 235 237 236 235 234 236 239 240 242 243 244 245 245 243 240 240 243 246 248 248 246 243 240 237 233 230 230 229 227 226 226 227 226 225 225 223 220 217 214 212 212 214 217 219 216
297 293 290 288 286 285 285 286 286 286 287 290 293 294 293 290 286 284 282 277 267 259 257 254 253 252 250 251 254 255 252 250 253 256 252 246 243 241 239 239 241 239 235 236 239 240 238 236 237 239 241 243 244 247 249 250 249 246 243 242 245 247 248 248 247 244 241 237 233 231 230 229 227 225 225 226 225 224 223 220 218 215 212 210 209 212 216 214
302 295 290 287 285 285 286 287 288 287 288 290 291 291 290 286 282 279 276 273 267 259 255 252 250 250 247 245 247 252 250 246 245 250 253 249 244 243 244 244 244 243 240 239 241 242 241 239 238 239 241 243 244 246 249 252 253 252 248 245 245 247 248 248 248 247 244 241 237 234 232 230 228 226 224 224 224 224 222 220 218 215 213 210 207 207 212 213
306 299 293 288 286 286 287 288 287 286 286 287 287 288 287 283 279 277 275 273 270 263 258 255 251 248 245 241 240 246 249 246 242 243 248 250 248 245 244 246 248 247 245 243 243 244 244 242 240 239 240 242 244 245 248 250 253 254 252 248 246 248 249 248 248 248 247 244 240 238 235 231 229 227 224 222 222 224 223 221 218 216 213 212 210 208 210 213
311 305 298 293 289 286 286 285 285 284 285 286 286 286 286 283 280 279 278 276 274 267 261 257 252 247 244 239 237 240 245 246 243 241 243 245 246 245 243 244 247 247 246 245 244 244 246 246 245 243 241 241 243 245 248 250 251 252 252 249 248 251 253 252 251 250 249 246 243 240 237 232 230 229 225 222 220 221 223 221 219 216 214 213 213 212 210 213
316 311 305 299 293 288 285 283 283 285 286 286 286 287 286 284 283 283 280 276 273 268 262 258 253 248 244 239 235 236 239 242 242 241 242 243 243 245 244 243 245 247 246 246 247 247 248 250 250 248 245 242 242 243 246 249 250 250 250 250 250 254 257 257 256 253 251 248 243 240 237 234 230 229 227 223 220 219 221 222 220 217 214 213 213 213 211 212
320 316 311 305 299 293 287 284 284 285 286 286 286 287 286 285 285 284 281 276 272 267 263 259 256 251 246 240 235 233 235 237 238 238 241 244 244 245 247 247 247 248 250 249 249 248 248 250 251 250 248 243 241 242 244 247 248 249 250 252 253 257 260 261 259 256 252 248 244 240 236 233 231 229 227 224 221 219 219 221 220 218 216 213 212 211 209 209
320 318 316 311 307 301 294 288 286 286 287 287 287 287 287 287 287 285 281 276 271 266 263 259 256 253 250 244 237 233 233 235 235 235 238 242 245 245 248 249 249 249 251 251 249 248 248 249 251 252 252 248 244 242 243 245 248 249 251 253 255 258 262 264 262 257 250 245 242 240 237 233 231 229 227 225 222 219 218 219 220 219 217 214 212 211 208 207
319 318 317 315 313 311 305 296 291 289 288 287 287 288 287 286 284 281 277 274 268 263 259 257 254 251 250 247 241 234 232 234 234 232 232 237 241 243 245 247 249 250 251 251 250 249 249 250 252 254 255 254 250 247 246 247 249 249 250 253 257 259 262 265 264 259 253 247 241 239 238 235 232 230 228 226 223 221 219 218 219 219 217 215 213 211 208 206
317 318 317 316 316 316 314 307 298 292 289 288 287 287 285 283 280 277 275 273 269 263 257 254 250 247 246 246 242 236 232 233 234 231 229 232 236 240 243 245 248 249 250 252 252 251 250 251 252 253 255 256 254 252 250 249 249 251 252 254 258 261 263 263 262 257 253 250 246 243 241 237 234 230 228 227 225 222 220 218 218 218 218 216 214 212 209 207
316 316 316 317 317 317 317 314 305 297 293 289 287 285 283 281 279 278 276 275 271 265 259 256 250 245 245 246 244 239 233 232 233 230 227 229 233 235 240 243 246 248 249 251 253 253 252 251 252 254 255 257 256 255 253 251 251 252 254 255 258 261 262 261 258 252 249 248 248 247 245 240 236 232 230 228 226 223 220 219 218 218 218 217 215 212 210 208
314 315 316 316 317 318 318 316 311 304 296 290 287 286 284 282 281 280 279 278 276 268 261 259 255 245 242 245 245 242 236 233 233 230 226 227 230 231 234 239 243 245 247 249 252 253 252 251 251 253 254 256 258 258 257 255 254 254 256 257 259 260 259 256 252 248 247 248 247 247 246 243 239 235 232 230 228 225 222 219 218 218 218 217 216 213 211 209
313 314 315 316 317 317 317 316 314 308 299 292 290 289 287 286 287 287 285 284 282 276 266 262 259 248 238 238 240 240 237 234 233 231 226 225 228 230 232 235 238 240 243 246 248 250 251 251 251 253 256 258 259 261 261 260 258 257 258 259 257 255 252 248 246 247 248 248 247 247 247 245 241 237 233 232 230 227 223 220 218 217 217 217 216 214 212 210